RH
19 19 20 20 19 15 11 9 6 4 5 6 7 7 8 10 12 13 15 16 26 96 97 94 91 95 99
16 17 19 19 14 11 9 5 4 6 8 8 9 10 11 14 17 19 21 22 40 95 96 92 90 89 91
14 18 16 14 11 8 5 6 7 9 9 10 11 13 16 19 22 22 24 29 38 95 93 92 92 91 89
14 13 15 14 7 4 7 8 8 10 12 12 14 17 20 23 25 29 33 37 87 99 98 96 94 94 96
20 32 14 7 5 8 9 11 12 11 15 15 15 18 24 28 31 34 38 44 83 97 97 100 100 100 99
39 16 7 5 8 10 12 13 17 19 16 20 21 22 24 30 34 40 40 43 46 47 73 97 100 100 100
23 8 5 8 10 13 16 19 26 33 26 21 24 22 25 31 37 43 44 46 50 50 50 88 100 100 100
10 5 8 11 13 15 18 21 28 36 39 36 43 30 27 32 39 46 48 51 53 50 50 54 96 100 100
5 8 10 13 17 21 22 26 29 44 48 51 50 52 34 34 43 47 46 46 48 50 52 57 66 97 72
9 13 14 19 22 23 28 39 49 58 70 57 51 58 76 56 47 51 51 49 52 54 56 58 61 69 95
13 14 19 24 26 30 39 46 53 59 68 63 57 72 82 71 47 55 60 59 61 65 61 62 64 83 100
16 20 25 29 33 38 44 51 57 61 63 69 67 76 79 71 68 57 63 62 70 70 64 60 62 69 70
22 27 29 29 34 42 45 48 53 60 64 68 68 66 69 77 77 67 73 62 72 75 65 61 62 69 71
27 30 32 38 41 41 42 43 45 49 58 64 66 70 66 65 65 67 79 86 69 74 74 59 58 69 73
30 35 39 43 45 46 47 48 50 50 47 52 62 62 61 61 62 74 77 71 74 74 74 69 56 65 69
35 38 41 44 46 48 48 46 46 47 56 65 64 61 60 64 67 77 77 81 72 69 74 82 65 63 66
38 41 46 47 50 49 47 47 46 51 62 67 72 83 98 100 70 68 86 73 75 69 75 80 78 67 69
Wind_Speed
7 7 7 8 10 14 17 18 19 19 18 20 21 22 23 24 25 26 27 28 28 25 25 26 27 29 29
6 5 5 7 10 13 16 17 17 17 18 20 21 22 23 24 25 26 27 28 27 24 25 25 27 29 30
3 3 5 8 10 12 14 14 15 16 18 19 20 22 22 23 25 25 25 24 25 24 25 26 28 28 29
1 3 6 10 11 11 12 14 14 15 18 19 19 20 22 21 22 21 24 25 25 24 25 27 28 29 29
3 6 8 9 11 13 14 16 16 17 20 20 19 20 22 23 24 23 25 27 25 26 27 28 28 29 30
5 6 8 9 11 12 15 19 21 19 22 21 23 25 28 28 26 25 26 27 27 28 29 28 28 29 30
6 7 7 7 9 11 14 18 19 22 23 26 26 28 31 30 25 29 28 28 28 28 29 29 30 30 30
7 6 6 7 9 12 14 16 18 24 25 31 32 33 34 30 32 31 29 28 28 28 29 31 31 31 31
5 6 6 8 9 12 13 17 21 24 24 31 35 39 38 33 40 35 29 29 29 28 28 29 32 32 32
2 4 5 6 9 12 14 18 21 20 23 29 33 36 29 33 40 35 32 28 28 26 27 28 30 32 32
1 2 4 6 8 11 14 17 18 19 21 25 29 31 30 40 41 36 34 33 31 34 34 34 33 29 31
1 1 2 4 7 10 13 15 16 16 17 20 25 28 31 36 35 37 36 35 35 38 38 37 35 32 28
3 2 1 3 6 9 11 13 14 15 16 18 22 25 29 31 33 36 39 41 37 37 38 38 36 35 36
3 1 1 4 7 10 13 15 16 16 17 18 21 24 27 29 28 34 34 35 39 39 38 37 33 32 30
3 1 1 4 8 11 14 16 17 19 19 19 21 23 24 29 29 31 35 35 36 39 39 39 35 28 28
3 1 2 5 9 12 14 17 18 20 22 23 26 31 31 30 27 30 34 35 36 38 39 37 38 29 24
3 1 3 7 9 12 15 17 19 20 21 22 25 27 31 33 34 30 34 36 39 38 36 35 34 31 27
Wind_Direction
242 260 289 318 330 331 331 335 339 341 339 344 347 345 344 343 340 339 338 336 336 335 334 330 327 324 323
238 255 296 323 331 334 334 342 342 345 351 352 351 350 351 347 346 346 345 344 341 337 334 333 328 324 323
232 277 321 328 333 337 336 345 351 357 357 360 357 354 353 352 349 346 342 339 337 336 334 330 326 326 325
307 330 326 329 340 343 346 1 1 360 3 6 359 352 354 344 342 340 338 337 334 331 328 326 325 324 322
331 330 335 344 351 357 0 360 359 359 7 1 357 347 347 348 344 343 339 338 333 330 328 326 324 323 321
325 343 345 352 356 359 1 0 2 359 355 358 352 352 350 350 346 343 340 334 332 330 327 326 324 322 320
336 344 343 352 358 7 4 4 1 356 352 352 355 355 352 351 352 347 338 333 332 330 327 327 324 322 319
330 338 350 1 5 6 5 2 356 356 354 347 351 354 355 353 356 352 345 339 333 330 327 325 323 321 318
329 343 352 2 6 4 2 360 359 357 353 347 353 344 354 355 353 354 350 341 337 334 330 326 324 322 323
336 346 10 9 7 1 1 3 359 358 347 347 354 351 340 348 356 354 354 353 346 344 340 337 335 331 326
286 15 12 8 5 0 359 359 357 356 348 346 351 348 343 340 352 357 360 358 355 354 352 349 347 337 328
165 67 27 13 6 358 352 350 351 352 345 344 348 347 342 344 344 356 359 2 359 356 353 353 354 351 345
160 138 45 5 358 351 343 345 346 343 344 348 344 344 345 345 341 353 350 350 352 350 348 349 350 352 349
163 160 29 357 342 341 344 346 343 344 350 344 341 344 342 345 343 349 352 345 347 349 344 345 351 351 347
171 152 351 339 341 341 344 343 343 342 342 344 345 343 346 352 347 351 347 347 346 346 346 342 350 350 345
169 197 321 340 342 344 341 343 343 345 349 349 347 346 347 352 358 349 351 349 348 348 347 343 344 354 347
184 233 328 334 341 342 342 342 346 349 353 354 354 348 345 336 346 1 347 349 350 350 349 346 345 351 353